Location: Canazei
(46.4667°N, 11.7667°E)
Time: 07:43:18
(UTC+00:00)

Cosmos 2181 Rocket - Pass Details

Date: 21 April 2021
Orbit: 951 x 1016 km, 82.9° (Epoch: 05 May)

Event Time Altitude Azimuth Distance (km) Brightness Sun altitude
Exits shadow 00:21:34 66° 114° (ESE) 1,074 4.1 -29.6°
Maximum altitude 00:21:54 67° 94° (E) 1,064 4.1 -29.6°
Drops below altitude 10° 00:28:06 10° 13° (NNE) 2,730 7.3 -29.2°
Sets 00:30:36 0° 11° (NNE) 3,672 8.2 -29.0°
